South Labrador Coast: Past 24 Hour Conditions

 

Ingonish Beach

02:00 AM ADT 30 July 2014
This table is a summary of hourly weather conditions for the past 24 hours.
Date / Time
(ADT)
Wind(knots) Conditions Visibility(km) Pressure(kPa) Air tempC) Relative humidity(%) Dew pointC) Humidex
30 July 2014
2:00 N 2 N/A N/A 101.6 20 85 18 26
1:00 SW 3 N/A N/A 101.6 21 79 18 27
0:00 S 2 N/A N/A 101.5 22 79 18 28
29 July 2014
23:00 S 3 N/A N/A 101.5 22 78 18 28
22:00 SSW 1 N/A N/A 101.4 23 74 18 29
21:00 S 6 N/A N/A 101.4 24 71 18 30
20:00 S 6 N/A N/A 101.4 25 69 19 31
19:00 SSW 8 N/A N/A 101.3 26 68 19 32
18:00 SSW 11 gust 17 N/A N/A 101.3 26 66 20 33
17:00 S 7 gust 15 N/A N/A 101.2 27 63 20 34
16:00 SW 9 gust 19 N/A N/A 101.2 28 63 20 35
15:00 SSW 10 N/A N/A 101.2 27 64 20 35
14:00 SSW 7 N/A N/A 101.2 27 68 21 35
13:00 S 11 gust 16 N/A N/A 101.2 27 63 20 35
12:00 SSW 10 gust 18 N/A N/A 101.1 26 67 19 33
11:00 SSW 9 gust 16 N/A N/A 101.1 26 65 19 32
10:00 SSW 9 gust 16 N/A N/A 101.1 25 71 20 32
9:00 SSW 6 N/A N/A 101.1 23 82 20 30
8:00 SSW 6 N/A N/A 101.0 23 82 20 30
7:00 S 4 N/A N/A 101.0 22 88 20 29
6:00 NE 1 N/A N/A 101.0 21 92 20 28
5:00 S 5 N/A N/A 101.0 21 92 19 28
4:00 S 7 N/A N/A 101.0 21 92 20 28
3:00 NNE 3 N/A N/A 101.0 20 93 19 *
2:00 WSW 1 N/A N/A 101.1 20 93 19 *
 
Map of Atlantic - Newfoundland marine weather areas Southwestern Grand Banks - 44138 Banquereau - 44139 Tail of the Bank - 44140 Nickerson Bank - 44251 Northeast Burgeo Bank - 44255 Blanc-Sablon Airport Cap Whittle Chevery Natashquan Airport Heath Point Miscou Island Grand Étang Ingonish Beach North Mountain St.Paul Island J.A. Douglas McCurdy Sydney Airport Charlottetown Airport East Point North Cape Argentia Bonavista Burgeo Cape Race Corner Brook Daniel's Harbour Englee Ferolle Point La Scie Port aux Basques Rocky Harbour Sagona Island St. Anthony Airport St. John's Int'l Airport St. Lawrence Stephenville Airport Twillingate Winterland Wreckhouse Cartwright Airport Mary's Harbour Grates Cove Pool's Island Marticot Island Long Pond Îles de la Madeleine Airport
Legend: buoyBuoy land stationLand Station